Regional Weather Roundup
Issued by NWS

Home | Current Version | Previous Version | Graphics & Text | Print | Product List | Glossary On
Versions: 1 2 3 4 5 6 7 8 9 10 11 12 13 14 15 16 17 18 19 20 21 22 23 24 25 26 27 28 29 30 31 32 33 34 35 36 37 38 39 40 41 42 43 44 45 46 47 48 49 50
000
ASUS43 KBIS 040102
RWRND

NORTH DAKOTA REGIONAL WEATHER ROUNDUP
NATIONAL WEATHER SERVICE BISMARCK ND
800 PM CDT THU SEP 03 2015

NOTE: "FAIR" INDICATES FEW OR NO CLOUDS BELOW 12,000 FEET WITH NO
SIGNIFICANT WEATHER AND/OR OBSTRUCTIONS TO VISIBILITY.


NDZ001>003-009>011-017-040200-
NORTHWEST NORTH DAKOTA

CITY           SKY/WX    TMP DP  RH WIND       PRES   REMARKS
WILLISTON      PTCLDY    79  53  40 N15       29.74R
MINOT          PTCLDY    80  68  66 NW10      29.67R
$$

NDZ018>021-031>035-040>046-040200-
SOUTHWEST NORTH DAKOTA

CITY           SKY/WX    TMP DP  RH WIND       PRES   REMARKS
BISMARCK       CLOUDY    87  58  37 SW12      29.68R
DICKINSON      PTCLDY    81  55  40 NE6       29.70S
GARRISON         N/A     84  64  50 N8        29.66R
HETTINGER ARPT MOCLDY    87  49  26 CALM      29.73R
$$

NDZ004>008-012>016-024-026-027-054-040200-
NORTHEAST NORTH DAKOTA

CITY           SKY/WX    TMP DP  RH WIND       PRES   REMARKS
GRAND FORKS    PTCLDY    86  71  60 S15G23    29.70R HX  91
GRND FRKS AFB  PTCLDY    86  73  66 SE16      29.71R HX  93
DEVILS LAKE    PTCLDY    86  66  51 SE14      29.67R
$$

NDZ022-023-025-028>030-036>039-047>053-040200-
SOUTHEAST NORTH DAKOTA

CITY           SKY/WX    TMP DP  RH WIND       PRES   REMARKS
FARGO          CLEAR     86  73  65 SE14G23   29.74R HX  93
JAMESTOWN      PTCLDY    82  67  60 S8        29.72R
$$




USA.gov is the U.S. government's official web portal to all federal, state and local government web resources and services.